This is the latest recevied weather packets stored in our database for station/object DH1NAI-6. If no packets are shown the sender has not sent any weather packets the latest 10 day(s).
| Time | Temp. | Humidity | Pressure | Rain* | Wind** | Luminosity | Snow |
|---|---|---|---|---|---|---|---|
| 1787930276 | 19.44° C | 92% | 1010.6 hPa | 0 mm | - | 35 W/m² | - |
| 1787929652 | 19.44° C | 92% | 1010.9 hPa | 0 mm | - | 48 W/m² | - |
| 1787929044 | 20° C | 91% | 1011 hPa | 0 mm | - | 35 W/m² | - |
| 1787928420 | 20° C | 92% | 1010.3 hPa | 0 mm | - | 50 W/m² | - |
| 1787927798 | 19.44° C | 92% | 1011.3 hPa | 0 mm | - | 76 W/m² | - |
| 1787927188 | 19.44° C | 91% | 1011.5 hPa | 0 mm | - | 53 W/m² | - |
| 1787926580 | 19.44° C | 91% | 1011.5 hPa | 0 mm | - | 49 W/m² | - |
| 1787925972 | 20° C | 90% | 1011.2 hPa | 0 mm | - | 55 W/m² | - |
| 1787925364 | 20° C | 90% | 1011.3 hPa | 0 mm | - | 82 W/m² | - |
| 1787924756 | 20.56° C | 91% | 1010.9 hPa | 0 mm | - | 54 W/m² | - |
| 1787924132 | 20.56° C | 91% | 1011.1 hPa | 0 mm | - | 72 W/m² | - |
| 1787923531 | 20.56° C | 93% | 1010.6 hPa | 0 mm | - | 83 W/m² | - |
| 1787922916 | 19.44° C | 95% | 1011 hPa | 0 mm | - | 107 W/m² | - |
| 1787922308 | 18.33° C | 99% | 1010.7 hPa | 0 mm | - | 73 W/m² | - |
| 1787921700 | 18.33° C | 99% | 1010.3 hPa | 1.02 mm | - | 177 W/m² | - |
| 1787921092 | 17.22° C | 99% | 1010.8 hPa | 1.02 mm | - | 37 W/m² | - |
| 1787920484 | 17.22° C | 99% | 1011 hPa | 1.02 mm | - | 39 W/m² | - |
| 1787919876 | 17.22° C | 99% | 1011.4 hPa | 1.02 mm | - | 24 W/m² | - |
| 1787919268 | 16.67° C | 99% | 1011.8 hPa | 1.02 mm | - | 22 W/m² | - |
| 1787918660 | 16.67° C | 99% | 1011.2 hPa | 1.02 mm | - | 21 W/m² | - |
| 1787918052 | 16.67° C | 99% | 1012.7 hPa | 1.02 mm | - | 32 W/m² | - |
| 1787917444 | 16.67° C | 99% | 1013.1 hPa | 1.02 mm | - | 15 W/m² | - |
| 1787916836 | 16.67° C | 99% | 1013.7 hPa | 1.02 mm | - | 12 W/m² | - |
| 1787916228 | 16.67° C | 99% | 1013.8 hPa | 1.02 mm | - | 9 W/m² | - |
| 1787915620 | 16.67° C | 99% | 1014 hPa | 1.02 mm | - | 6 W/m² | - |
* Rain latest hour (hover to see other rain measurements)
** Current wind speed in m/s (hover to see current wind gust speed)